GW0502 Weather Reports


Display with metric or nautical units.
time (UTC)temp
F
wind
direction
speed
MPH
gust
MPH
rain 1hr
in
rain 24hr
in
rain mn
in
humidity
%
barometer
mb
20260508060355 44 348 4.0 6.0 0.00 0.00 0.00 62 1006.2
20260508055850 44 313 3.0 3.0 0.00 0.00 0.00 62 1006.6
20260508055348 44 349 3.0 3.0 0.00 0.00 0.00 62 1006.4
20260508054844 44 9 1.0 1.0 0.00 0.00 0.00 62 1006.4
20260508054341 44 317 3.0 3.0 0.00 0.00 0.00 62 1006.5
20260508053838 44 349 2.0 2.0 0.00 0.00 0.00 62 1006.4
20260508053336 44 299 2.0 3.0 0.00 0.00 0.00 61 1006.7
20260508052833 44 332 2.0 2.0 0.00 0.00 0.00 62 1006.5
20260508052330 43 281 3.0 5.0 0.00 0.00 0.00 61 1006.7
20260508051826 43 15 1.0 2.0 0.00 0.00 0.00 62 1006.8
20260508051322 43 307 0.0 1.0 0.00 0.00 0.00 62 1006.7
20260508050818 43 345 1.0 1.0 0.00 0.00 0.00 63 1006.5
20260508050316 43 273 4.0 5.0 0.00 0.00 0.00 62 1006.5
20260508045811 44 70 2.0 2.0 0.00 0.00 0.00 62 1006.4
20260508045309 44 281 5.0 6.0 0.00 0.00 0.00 62 1006.7
20260508044807 43 311 2.0 2.0 0.00 0.00 0.00 63 1006.6
20260508044303 43 280 2.0 2.0 0.00 0.00 0.00 62 1006.5
20260508043759 44 330 2.0 2.0 0.00 0.00 0.00 61 1006.8
20260508043256 43 331 3.0 3.0 0.00 0.00 0.00 61 1006.8
20260508042753 43 9 2.0 2.0 0.00 0.00 0.00 61 1006.7
20260508042251 43 323 1.0 1.0 0.00 0.00 0.00 61 1006.7
20260508041747 44 339 1.0 1.0 0.00 0.00 0.00 61 1006.6
20260508041244 44 321 2.0 2.0 0.00 0.00 0.00 61 1006.5
20260508040740 44 349 1.0 2.0 0.00 0.00 0.00 59 1006.7
20260508040238 44 4 2.0 2.0 0.00 0.00 0.00 60 1006.8
20260508035735 43 30 3.0 3.0 0.00 0.12 0.12 61 1006.7
20260508035232 43 18 0.0 1.0 0.00 0.12 0.12 62 1006.8
20260508034728 44 4 0.0 0.0 0.00 0.12 0.12 59 1006.9
20260508034226 44 292 2.0 2.0 0.00 0.12 0.12 59 1007.0
20260508033723 44 280 3.0 3.0 0.00 0.12 0.12 59 1006.9
20260508033221 44 270 2.0 2.0 0.00 0.12 0.12 59 1007.1
20260508032719 45 336 1.0 1.0 0.00 0.12 0.12 58 1007.0
20260508032215 45 356 1.0 1.0 0.00 0.12 0.12 58 1007.0
20260508031712 45 13 1.0 1.0 0.00 0.12 0.12 57 1007.0
20260508031208 45 357 1.0 1.0 0.00 0.12 0.12 56 1007.1
20260508030705 46 54 0.0 1.0 0.00 0.12 0.12 55 1007.0
20260508030203 46 11 1.0 1.0 0.00 0.12 0.12 54 1006.9
20260508025659 46 357 1.0 2.0 0.00 0.12 0.12 54 1006.9
20260508025156 46 4 0.0 1.0 0.00 0.12 0.12 55 1006.7
20260508024651 46 352 1.0 1.0 0.00 0.12 0.12 54 1006.7
20260508024149 46 19 2.0 2.0 0.00 0.12 0.12 54 1006.8
20260508023645 47 26 2.0 2.0 0.00 0.12 0.12 53 1006.8
20260508023143 47 351 3.0 3.0 0.00 0.12 0.12 53 1007.0
20260508022638 47 15 3.0 3.0 0.00 0.12 0.12 52 1006.8
20260508022136 47 9 1.0 1.0 0.00 0.12 0.12 52 1006.6
20260508021632 47 45 2.0 2.0 0.00 0.12 0.12 53 1006.4
20260508021127 47 37 1.0 1.0 0.00 0.12 0.12 53 1006.6
20260508020626 47 303 3.0 6.0 0.00 0.12 0.12 53 1006.7
20260508020123 47 38 2.0 2.0 0.00 0.12 0.12 53 1006.8
20260508015620 47 16 5.0 6.0 0.00 0.12 0.12 54 1006.7
20260508015117 47 35 2.0 2.0 0.00 0.12 0.12 54 1006.6
20260508014613 48 44 3.0 5.0 0.00 0.12 0.12 54 1006.7
20260508014110 48 47 1.0 1.0 0.00 0.12 0.12 55 1006.5
20260508013606 48 23 1.0 1.0 0.00 0.12 0.12 54 1006.7
20260508013103 48 7 5.0 6.0 0.00 0.12 0.12 54 1006.7
20260508012600 48 35 1.0 1.0 0.00 0.12 0.12 56 1006.7
20260508012057 48 330 6.0 9.0 0.00 0.12 0.12 54 1006.4
20260508011556 49 19 5.0 7.0 0.00 0.12 0.12 54 1006.5
20260508011053 49 24 4.0 5.0 0.00 0.12 0.12 53 1006.7
20260508010549 49 21 3.0 3.0 0.00 0.12 0.12 54 1006.5
20260508010047 49 310 4.0 6.0 0.00 0.12 0.12 54 1006.3
20260508005543 49 44 9.0 10.0 0.00 0.12 0.12 54 1006.4
20260508005040 49 32 2.0 3.0 0.00 0.12 0.12 54 1006.3
20260508004536 49 42 4.0 5.0 0.00 0.12 0.12 54 1006.0
20260508004033 50 33 3.0 6.0 0.00 0.12 0.12 53 1006.3
20260508003529 50 53 6.0 7.0 0.00 0.12 0.12 52 1006.2
20260508003027 50 15 5.0 8.0 0.00 0.12 0.12 52 1006.1
20260508002523 51 22 4.0 7.0 0.00 0.12 0.12 51 1005.8
20260508002021 51 39 5.0 8.0 0.00 0.12 0.12 50 1005.9
20260508001516 51 344 7.0 10.0 0.00 0.12 0.12 49 1006.0
20260508001013 51 8 9.0 14.0 0.00 0.12 0.12 49 1005.7
20260508000509 52 356 2.0 2.0 0.00 0.12 0.12 50 1005.7
20260508000006 52 38 6.0 7.0 0.00 0.12 0.12 49 1005.6
20260507235502 52 20 3.0 7.0 0.00 0.12 0.12 49 1005.5
20260507235000 52 44 3.0 3.0 0.00 0.12 0.12 50 1005.5
20260507234456 53 61 2.0 3.0 0.00 0.12 0.12 50 1005.4
20260507233953 53 49 2.0 5.0 0.00 0.12 0.12 49 1005.2
20260507233450 53 299 5.0 6.0 0.00 0.12 0.12 48 1005.1
20260507232948 54 7 5.0 6.0 0.00 0.12 0.12 48 1004.9
20260507232444 54 13 5.0 7.0 0.00 0.12 0.12 48 1004.9
20260507231942 55 348 4.0 5.0 0.00 0.12 0.12 48 1004.7
20260507231438 55 60 2.0 3.0 0.00 0.12 0.12 49 1004.4
20260507230935 55 349 1.0 3.0 0.00 0.12 0.12 50 1004.4
20260507230432 55 354 4.0 7.0 0.00 0.12 0.12 47 1004.3
20260507225932 56 289 4.0 5.0 0.00 0.12 0.12 47 1004.3
20260507225428 57 20 2.0 2.0 0.00 0.12 0.12 47 1004.2
20260507224925 58 344 3.0 3.0 0.00 0.12 0.12 45 1004.3
20260507224421 58 356 2.0 3.0 0.00 0.12 0.12 45 1003.7
20260507223918 59 12 3.0 3.0 0.00 0.12 0.12 43 1003.8
20260507223414 59 340 2.0 3.0 0.00 0.12 0.12 42 1003.6
20260507222911 59 280 2.0 3.0 0.00 0.12 0.12 42 1003.5
20260507222408 60 54 8.0 9.0 0.00 0.12 0.12 42 1003.6
20260507221905 60 18 2.0 2.0 0.00 0.12 0.12 40 1003.4
20260507221401 60 273 2.0 3.0 0.00 0.12 0.12 40 1003.3
20260507220857 60 308 7.0 9.0 0.00 0.12 0.12 40 1003.3
20260507220355 60 303 7.0 10.0 0.00 0.12 0.12 41 1003.1
20260507215852 60 255 5.0 8.0 0.00 0.12 0.12 41 1003.2
20260507215348 60 15 9.0 15.0 0.00 0.12 0.12 40 1003.2
20260507214845 60 140 2.0 2.0 0.00 0.12 0.12 43 1003.1
20260507214343 60 302 3.0 3.0 0.00 0.12 0.12 43 1003.3
20260507213838 59 330 4.0 6.0 0.00 0.12 0.12 45 1003.3
20260507213335 61 294 5.0 5.0 0.00 0.12 0.12 43 1003.2
20260507212832 61 296 2.0 2.0 0.00 0.12 0.12 45 1003.1
20260507212327 61 284 6.0 9.0 0.00 0.12 0.12 44 1003.4
20260507211824 61 308 4.0 5.0 0.00 0.12 0.12 44 1003.2
20260507211321 61 298 5.0 6.0 0.00 0.12 0.12 47 1003.2
20260507210818 61 340 9.0 14.0 0.00 0.12 0.12 47 1003.2
20260507210315 60 291 6.0 8.0 0.00 0.12 0.12 50 1002.9
20260507205811 60 349 6.0 8.0 0.00 0.12 0.12 52 1003.0
20260507205309 61 284 6.0 9.0 0.00 0.12 0.12 52 1003.2
20260507204804 60 36 3.0 5.0 0.00 0.12 0.12 53 1003.0
20260507204302 60 34 3.0 5.0 0.00 0.12 0.12 53 1003.1
20260507203800 60 346 5.0 6.0 0.00 0.12 0.12 53 1002.9
20260507203258 62 313 6.0 8.0 0.00 0.12 0.12 51 1002.9
20260507202753 60 330 1.0 2.0 0.00 0.12 0.12 52 1002.8
20260507202249 60 20 1.0 2.0 0.00 0.12 0.12 54 1002.8
20260507201744 60 343 5.0 6.0 0.00 0.12 0.12 52 1002.8
20260507201241 61 316 8.0 10.0 0.00 0.12 0.12 50 1002.9
20260507200738 60 277 8.0 11.0 0.00 0.12 0.12 52 1002.7
20260507200233 60 336 3.0 5.0 0.00 0.12 0.12 53 1002.9
20260507195730 61 354 3.0 3.0 0.00 0.12 0.12 55 1002.9
20260507195228 62 27 7.0 8.0 0.00 0.12 0.12 49 1003.0
20260507194725 61 354 3.0 3.0 0.00 0.12 0.12 53 1003.0
20260507194220 61 25 6.0 8.0 0.00 0.12 0.12 51 1003.0
20260507193717 60 293 5.0 8.0 0.00 0.12 0.12 51 1002.9
20260507193214 60 357 1.0 1.0 0.00 0.12 0.12 53 1003.0
20260507192710 60 12 4.0 5.0 0.00 0.12 0.12 54 1003.0
20260507192207 60 259 4.0 5.0 0.00 0.12 0.12 53 1003.0
20260507191703 60 312 7.0 8.0 0.00 0.12 0.12 52 1002.9
20260507191201 60 332 4.0 5.0 0.00 0.12 0.12 52 1002.9
20260507190657 60 300 4.0 5.0 0.00 0.12 0.12 52 1002.9
20260507190156 62 243 5.0 6.0 0.00 0.12 0.12 52 1002.9
20260507185654 61 256 10.0 15.0 0.00 0.12 0.12 53 1003.1
20260507185150 62 277 5.0 10.0 0.00 0.12 0.12 51 1003.1
20260507184648 61 318 7.0 8.0 0.00 0.12 0.12 54 1003.2
20260507184146 60 290 3.0 3.0 0.00 0.12 0.12 56 1003.5
20260507183642 59 265 4.0 5.0 0.00 0.12 0.12 54 1003.4
20260507183139 59 270 4.0 6.0 0.00 0.12 0.12 52 1003.4
20260507182636 59 41 3.0 5.0 0.00 0.12 0.12 55 1003.4
20260507182132 60 335 5.0 6.0 0.00 0.12 0.12 56 1003.6
20260507181628 59 22 5.0 7.0 0.00 0.12 0.12 56 1003.8
20260507181124 59 359 2.0 3.0 0.00 0.12 0.12 59 1003.8
20260507180621 59 348 3.0 5.0 0.00 0.12 0.12 58 1003.6
20260507180118 59 6 3.0 3.0 0.00 0.12 0.12 56 1003.9
20260507175614 59 353 1.0 1.0 0.00 0.12 0.12 55 1003.8
20260507175111 60 268 7.0 8.0 0.00 0.12 0.12 55 1003.8
20260507174609 61 270 6.0 7.0 0.00 0.12 0.12 56 1003.8
20260507174106 59 272 3.0 3.0 0.00 0.12 0.12 55 1003.8
20260507173603 59 287 3.0 3.0 0.00 0.12 0.12 54 1003.9
20260507173100 59 310 4.0 6.0 0.00 0.12 0.12 53 1003.9
20260507172556 59 265 5.0 6.0 0.00 0.12 0.12 57 1003.9
20260507172053 59 268 2.0 2.0 0.00 0.12 0.12 53 1003.8
20260507171548 61 269 4.0 5.0 0.00 0.12 0.12 55 1004.1
20260507171046 60 23 2.0 3.0 0.00 0.12 0.12 55 1004.1
20260507170543 60 333 2.0 2.0 0.00 0.12 0.12 56 1004.1
20260507170040 60 343 5.0 7.0 0.00 0.12 0.12 54 1004.1
20260507165535 59 265 6.0 8.0 0.00 0.12 0.12 56 1004.2
20260507165032 58 239 4.0 5.0 0.00 0.12 0.12 58 1004.1
20260507164528 59 274 4.0 6.0 0.00 0.12 0.12 57 1004.2
20260507164025 58 43 2.0 3.0 0.00 0.12 0.12 62 1004.4
20260507163522 58 301 5.0 5.0 0.00 0.12 0.12 59 1004.6
20260507163021 57 303 4.0 5.0 0.00 0.12 0.12 60 1004.4
20260507162515 58 304 8.0 9.0 0.00 0.12 0.12 58 1004.4
20260507162012 58 352 2.0 2.0 0.00 0.12 0.12 61 1004.8
20260507161508 58 351 1.0 1.0 0.00 0.12 0.12 64 1004.7
20260507161005 58 25 0.0 1.0 0.00 0.12 0.12 62 1004.7
20260507160501 58 321 3.0 3.0 0.00 0.12 0.12 61 1005.0
20260507155957 58 290 3.0 3.0 0.00 0.12 0.12 65 1005.0
20260507155453 57 286 3.0 3.0 0.00 0.12 0.12 68 1005.0
20260507154950 57 288 4.0 5.0 0.00 0.12 0.12 63 1004.9
20260507154447 59 286 7.0 7.0 0.00 0.12 0.12 57 1004.7
20260507153944 59 260 2.0 2.0 0.00 0.12 0.12 63 1004.8
20260507153441 58 353 2.0 3.0 0.00 0.12 0.12 59 1004.8
20260507152937 58 262 4.0 5.0 0.00 0.12 0.12 65 1005.0
20260507152433 57 191 5.0 6.0 0.00 0.12 0.12 63 1004.8
20260507151929 59 265 4.0 5.0 0.00 0.12 0.12 65 1004.9
20260507151426 58 247 4.0 5.0 0.00 0.12 0.12 65 1005.1
20260507150923 58 311 5.0 7.0 0.00 0.12 0.12 68 1005.1
20260507150420 58 275 4.0 6.0 0.00 0.12 0.12 66 1005.4
20260507145916 58 332 3.0 5.0 0.00 0.12 0.12 67 1005.2
20260507145412 58 350 2.0 2.0 0.00 0.12 0.12 66 1005.1
20260507144909 56 11 4.0 5.0 0.00 0.12 0.12 68 1005.2
20260507144406 57 355 2.0 2.0 0.00 0.12 0.12 71 1005.4
20260507143903 57 349 3.0 3.0 0.00 0.12 0.12 69 1005.4
20260507143400 57 31 1.0 2.0 0.00 0.12 0.12 71 1005.5
20260507142857 56 47 1.0 2.0 0.00 0.12 0.12 71 1005.5
20260507142353 56 350 2.0 2.0 0.00 0.12 0.12 72 1005.5
20260507141850 55 34 3.0 3.0 0.00 0.12 0.12 75 1005.6
20260507141346 56 320 1.0 2.0 0.00 0.12 0.12 77 1006.0
20260507140843 55 3 0.0 1.0 0.00 0.12 0.12 77 1005.8
20260507140340 55 3 4.0 5.0 0.00 0.12 0.12 76 1005.9
20260507135838 56 5 3.0 3.0 0.00 0.12 0.12 76 1005.7
20260507135334 55 69 2.0 2.0 0.00 0.12 0.12 76 1005.8
20260507134832 55 41 2.0 3.0 0.00 0.12 0.12 78 1006.0
20260507134327 54 29 3.0 6.0 0.00 0.12 0.12 77 1006.0
20260507133824 54 58 4.0 6.0 0.00 0.12 0.12 76 1006.0
20260507133319 54 55 2.0 2.0 0.00 0.12 0.12 79 1005.9
20260507132818 54 348 4.0 5.0 0.00 0.12 0.12 77 1006.1
20260507132314 54 32 2.0 2.0 0.00 0.12 0.12 80 1006.0
20260507131811 53 21 4.0 6.0 0.00 0.12 0.12 79 1006.0
20260507131308 53 284 3.0 5.0 0.00 0.12 0.12 80 1006.3
20260507130804 52 15 0.0 0.0 0.00 0.12 0.12 80 1006.2
20260507130302 53 7 3.0 3.0 0.00 0.12 0.12 80 1006.0
20260507125801 53 7 3.0 5.0 0.00 0.12 0.12 80 1006.0
20260507125258 52 9 3.0 3.0 0.00 0.12 0.12 80 1006.0
20260507124755 52 0 3.0 5.0 0.00 0.12 0.12 81 1006.2
20260507124251 52 280 3.0 5.0 0.00 0.12 0.12 83 1006.4
20260507123750 51 311 2.0 2.0 0.00 0.12 0.12 83 1006.2
20260507123247 50 336 6.0 8.0 0.00 0.12 0.12 82 1006.3
20260507122742 51 325 5.0 6.0 0.00 0.12 0.12 83 1006.3
20260507122238 52 297 9.0 11.0 0.00 0.12 0.12 82 1005.9
20260507121734 51 305 0.0 1.0 0.00 0.12 0.12 85 1005.9
20260507121230 50 40 2.0 2.0 0.00 0.12 0.12 85 1006.0
20260507120726 49 14 3.0 3.0 0.00 0.12 0.12 87 1006.3
20260507120224 49 300 5.0 6.0 0.00 0.12 0.12 88 1006.3
20260507115719 50 319 2.0 2.0 0.00 0.12 0.12 89 1006.3
20260507115216 49 326 1.0 2.0 0.00 0.12 0.12 91 1006.6
20260507114711 48 350 2.0 2.0 0.00 0.12 0.12 90 1006.4
20260507114209 48 16 1.0 2.0 0.00 0.12 0.12 91 1006.5
20260507113706 48 30 2.0 2.0 0.00 0.12 0.12 94 1006.5
20260507113203 47 344 3.0 3.0 0.00 0.12 0.12 94 1006.3
20260507112701 47 210 3.0 3.0 0.00 0.12 0.12 95 1006.8
20260507112157 47 182 2.0 2.0 0.00 0.12 0.12 97 1006.7
20260507111655 47 244 2.0 3.0 0.00 0.12 0.12 99 1006.9
20260507111152 46 215 2.0 2.0 0.00 0.12 0.12 99 1006.7
20260507110647 46 189 2.0 3.0 0.00 0.12 0.12 99 1006.6
20260507110144 46 293 2.0 2.0 0.00 0.12 0.12 99 1006.9
20260507105641 46 352 0.0 0.0 0.00 0.12 0.12 99 1006.3
20260507105137 45 17 0.0 0.0 0.00 0.12 0.12 99 1006.4
20260507104634 45 9 0.0 0.0 0.00 0.12 0.12 99 1006.4
20260507104131 45 305 2.0 3.0 0.00 0.12 0.12 99 1006.5
20260507103627 45 341 1.0 1.0 0.00 0.12 0.12 99 1006.6
20260507103124 45 340 3.0 3.0 0.00 0.12 0.12 99 1006.3
20260507102620 44 9 0.0 1.0 0.00 0.12 0.12 99 1006.0
20260507102116 45 1 2.0 2.0 0.00 0.12 0.12 99 1005.8
20260507101613 44 17 0.0 0.0 0.00 0.12 0.12 99 1006.0
20260507101109 44 11 1.0 1.0 0.00 0.12 0.12 99 1006.2
20260507100606 44 2 2.0 2.0 0.00 0.12 0.12 99 1005.9
20260507100104 44 15 3.0 3.0 0.00 0.12 0.12 99 1005.9
20260507095602 44 19 1.0 2.0 0.00 0.12 0.12 99 1005.8
20260507095058 44 22 1.0 1.0 0.00 0.12 0.12 99 1005.9
20260507094554 44 49 2.0 2.0 0.00 0.12 0.12 99 1005.9
20260507094051 44 3 0.0 1.0 0.00 0.12 0.12 99 1006.0
20260507093549 44 359 1.0 1.0 0.00 0.12 0.12 99 1006.0
20260507093047 44 331 3.0 3.0 0.00 0.12 0.12 99 1005.7
20260507092543 44 11 2.0 2.0 0.00 0.12 0.12 99 1005.5
20260507092040 45 14 1.0 2.0 0.00 0.12 0.12 99 1006.0
20260507091537 45 22 0.0 0.0 0.00 0.12 0.12 99 1005.8
20260507091033 45 325 2.0 2.0 0.00 0.12 0.12 99 1006.0
20260507090529 45 15 0.0 0.0 0.00 0.12 0.12 99 1005.9
20260507090026 45 5 2.0 3.0 0.00 0.12 0.12 99 1006.4
20260507085523 45 333 2.0 2.0 0.00 0.12 0.12 99 1006.1
20260507085020 45 11 0.0 1.0 0.00 0.12 0.12 99 1005.6
20260507084516 46 12 1.0 1.0 0.00 0.12 0.12 99 1005.5
20260507084014 46 10 1.0 2.0 0.00 0.12 0.12 99 1005.7
20260507083510 46 10 2.0 2.0 0.00 0.12 0.12 99 1005.6
20260507083007 46 14 1.0 2.0 0.00 0.12 0.12 99 1005.6
20260507082503 46 19 1.0 1.0 0.00 0.12 0.12 99 1005.3
20260507081959 46 17 3.0 3.0 0.00 0.12 0.12 99 1005.4
20260507081455 46 359 1.0 1.0 0.00 0.12 0.12 99 1005.6
20260507080953 46 14 4.0 5.0 0.00 0.12 0.12 99 1005.3
20260507080448 46 242 2.0 3.0 0.00 0.12 0.12 99 1005.6
20260507075944 46 353 3.0 3.0 0.00 0.12 0.12 99 1005.4
20260507075440 46 356 1.0 1.0 0.00 0.12 0.12 99 1005.5
20260507074937 46 18 1.0 1.0 0.00 0.12 0.12 99 1005.5
20260507074433 46 23 3.0 3.0 0.00 0.12 0.12 99 1005.5
20260507073931 46 353 4.0 6.0 0.00 0.12 0.12 99 1005.7
20260507073422 46 40 3.0 3.0 0.00 0.12 0.12 99 1005.5
20260507072919 46 29 3.0 5.0 0.00 0.12 0.12 99 1005.5
20260507072417 46 35 1.0 1.0 0.00 0.12 0.12 99 1005.5
20260507071914 46 16 0.0 0.0 0.00 0.12 0.12 99 1005.3
20260507071411 46 18 0.0 1.0 0.00 0.12 0.12 99 1005.0
20260507070907 46 307 3.0 3.0 0.00 0.12 0.12 99 1005.2
20260507070405 46 22 2.0 2.0 0.00 0.12 0.12 99 1004.9
20260507065901 47 30 0.0 1.0 0.00 0.12 0.12 99 1005.1
20260507065358 47 50 3.0 3.0 0.00 0.12 0.12 99 1005.0
20260507064855 47 6 1.0 2.0 0.00 0.12 0.12 99 1005.2
20260507064353 47 353 3.0 3.0 0.00 0.12 0.12 99 1004.9
20260507063851 47 5 2.0 2.0 0.00 0.12 0.12 99 1005.1
20260507063348 47 291 4.0 6.0 0.05 0.12 0.12 99 1004.7
20260507062845 47 11 5.0 7.0 0.05 0.12 0.12 99 1004.8
20260507062341 47 356 5.0 6.0 0.00 0.11 0.11 99 1004.3
20260507061839 47 6 1.0 2.0 0.00 0.11 0.11 99 1004.7
20260507061337 47 34 2.0 2.0 0.00 0.11 0.11 99 1004.6
20260507060835 47 31 6.0 7.0 0.00 0.11 0.11 99 1004.8